Charleston, WV

11:28 AM EST on November 18, 2019 (GMT -0500)
Yeager Airport

Weather History for KCRW - October, 2019

Change the Weather History Date:

Monday, October 21, 2019

  Actual Average Record
Temperature  
Mean Temperature 65 °F 55 °F  
Max Temperature 79 °F 66 °F 89 °F (1920)
Min Temperature 50 °F 44 °F 18 °F (1952)
Degree Days  
Heating Degree Days 0 10  
Month to date heating degree days 107 163  
Since 1 July heating degree days 107 221  
Cooling Degree Days 0 0  
Month to date cooling degree days 61 16  
Year to date cooling degree days 1514 1089  
Growing Degree Days 14 (Base 50)    
Moisture  
Dew Point 53 °F    
Average Humidity 73    
Maximum Humidity 100    
Minimum Humidity 45    
Precipitation  
Precipitation T in 0.08 in 1.62 in (2016)
Month to date precipitation 3.48 1.74  
Year to date precipitation 37.08 36.10  
Snow  
Snow 0.00 in 0.00 in T in (1989)
Month to date snowfall 0.0 0.0  
Since 1 September snowfall 0.0 0.0  
Snow Depth 0.00 in    
Sea Level Pressure  
Sea Level Pressure 29.92 in    
Wind  
Wind Speed 6 mph (ESE)    
Max Wind Speed 15 mph    
Max Gust Speed 22 mph    
Visibility 7 miles    
Events Fog    
T = Trace of Precipitation, MM = Missing Value Source: NWS Daily Summary

Daily Weather History Graph

Daily Weather History Graph

Search for Another Location

Airport or City:

Astronomy

Oct. 21, 2019 Rise Set
Actual Time 7:40 AM EDT 6:40 PM EDT
Civil Twilight 7:14 AM EDT 7:07 PM EDT
Nautical Twilight 6:43 AM EDT 7:38 PM EDT
Astronomical Twilight 6:12 AM EDT 8:08 PM EDT
Moon No Moon Rise 2:55 PM EDT (10/21)
Length of Visible Light 11h 53m
Length of Day
10h 59m
Waning Gibbous, 48% of the Moon is Illuminated
Oct 21
Waning Gibbous
Oct 27
New
Nov 4
First Quarter
Nov 12
Full
Nov 19
Last Quarter

Hourly Weather History & Observations

Time (EDT) Temp. Dew Point Humidity Pressure Visibility Wind Dir Wind Speed Gust Speed Precip Events Conditions
12:54 AM 51.1 °F 48.9 °F 92% 30.00 in 6.0 mi Calm Calm - N/A   Mist
1:54 AM 50.0 °F 48.9 °F 96% 30.01 in 5.0 mi Calm Calm - N/A   Mist
1:56 AM 50.0 °F 48.9 °F 96% 30.01 in 4.0 mi Calm Calm - N/A   Mostly Cloudy
2:54 AM 50.0 °F 48.0 °F 93% 30.00 in 4.0 mi Calm Calm - N/A   Mostly Cloudy
3:54 AM 51.1 °F 50.0 °F 96% 29.99 in 4.0 mi Calm Calm - N/A   Overcast
4:54 AM 51.1 °F 50.0 °F 96% 29.99 in 1.0 mi Calm Calm - N/A   Overcast
5:54 AM 53.1 °F 51.1 °F 93% 29.96 in 1.0 mi East 4.6 mph - N/A   Overcast
6:08 AM 52.0 °F 51.1 °F 97% 29.98 in 1.0 mi NNE 3.5 mph - N/A   Mist
6:54 AM 52.0 °F 51.1 °F 97% 29.98 in 1.0 mi ENE 3.5 mph - N/A   Mist
7:51 AM 51.8 °F 50.0 °F 94% 29.97 in 0.2 mi NNE 3.5 mph - N/A Fog Fog
7:54 AM 51.1 °F 50.0 °F 96% 29.96 in 0.2 mi NNE 4.6 mph - N/A Fog Fog
8:00 AM 51.1 °F 50.0 °F 96% 29.97 in 2.0 mi NNE 5.8 mph - N/A   Mist
8:36 AM 52.0 °F 50.0 °F 93% 29.96 in 4.0 mi NE 6.9 mph - N/A   Scattered Clouds
8:54 AM 53.1 °F 51.1 °F 93% 29.96 in 6.0 mi NE 4.6 mph - N/A   Partly Cloudy
9:54 AM 57.0 °F 53.1 °F 87% 29.94 in 10.0 mi NE 4.6 mph - N/A   Partly Cloudy
10:54 AM 66.0 °F 54.0 °F 65% 29.92 in 10.0 mi SSE 5.8 mph - N/A   Partly Cloudy
11:54 AM 70.0 °F 53.1 °F 55% 29.93 in 10.0 mi South 10.4 mph - N/A   Clear
12:54 PM 73.9 °F 54.0 °F 50% 29.91 in 10.0 mi SSE 13.8 mph 19.6 mph N/A   Clear
1:54 PM 75.9 °F 55.0 °F 48% 29.86 in 10.0 mi SE 10.4 mph 18.4 mph N/A   Partly Cloudy
2:54 PM 78.1 °F 55.9 °F 46% 29.84 in 10.0 mi Variable 5.8 mph - N/A   Partly Cloudy
3:54 PM 78.1 °F 55.9 °F 46% 29.83 in 10.0 mi SSE 9.2 mph - N/A   Scattered Clouds
4:54 PM 75.9 °F 57.0 °F 52% 29.83 in 10.0 mi ESE 6.9 mph - N/A   Scattered Clouds
5:54 PM 73.9 °F 57.0 °F 55% 29.83 in 10.0 mi SE 6.9 mph - N/A   Mostly Cloudy
6:54 PM 73.0 °F 57.0 °F 57% 29.83 in 10.0 mi SE 8.1 mph - N/A   Mostly Cloudy
7:54 PM 72.0 °F 55.9 °F 57% 29.83 in 10.0 mi SE 10.4 mph - N/A   Overcast
8:54 PM 71.1 °F 55.9 °F 59% 29.85 in 10.0 mi SSE 8.1 mph - N/A   Overcast
9:54 PM 70.0 °F 55.9 °F 61% 29.85 in 10.0 mi SSE 8.1 mph - N/A   Overcast
10:54 PM 70.0 °F 55.0 °F 59% 29.85 in 10.0 mi SSE 6.9 mph - N/A   Overcast
11:54 PM 69.1 °F 55.0 °F 61% 29.84 in 10.0 mi SE 8.1 mph - N/A   Overcast